FW3090 Weather Reports


Display with metric or nautical units.
time (UTC)temp
F
wind
direction
speed
MPH
gust
MPH
rain 1hr
in
rain 24hr
in
rain mn
in
humidity
%
barometer
mb
20200403225446 31 306 0.0 0.0 0.00 0.24 0.24 76 1019.8
20200403224946 31 332 0.0 0.0 0.01 0.24 0.24 76 1019.5
20200403224446 31 292 0.0 0.0 0.01 0.24 0.24 76 1019.5
20200403223945 31 291 0.0 0.0 0.02 0.24 0.24 77 1019.5
20200403223444 31 286 0.0 0.0 0.02 0.24 0.24 77 1019.7
20200403222944 31 342 0.0 0.0 0.03 0.24 0.24 77 1019.4
20200403222444 32 304 0.0 0.0 0.03 0.24 0.24 77 1019.3
20200403221944 32 303 1.0 6.0 0.04 0.24 0.24 77 1019.1
20200403221444 32 302 3.0 6.0 0.04 0.24 0.24 77 1019.2
20200403220944 32 319 2.0 6.0 0.06 0.24 0.24 77 1019.4
20200403220444 32 304 3.0 8.0 0.06 0.24 0.24 77 1019.3
20200403215944 32 298 3.0 8.0 0.06 0.24 0.24 77 1019.3
20200403215444 32 293 3.0 8.0 0.06 0.24 0.24 77 1019.3
20200403214944 32 319 4.0 8.0 0.05 0.23 0.23 77 1019.2
20200403214444 32 281 3.0 6.0 0.05 0.23 0.23 77 1019.2
20200403213944 32 292 4.0 7.0 0.04 0.22 0.23 77 1019.2
20200403213444 32 281 4.0 8.0 0.04 0.22 0.22 77 1019.0
20200403212944 32 298 4.0 8.0 0.03 0.21 0.21 77 1019.0
20200403212444 32 286 4.0 7.0 0.04 0.21 0.21 76 1019.1
20200403211944 32 296 4.0 7.0 0.04 0.20 0.20 76 1019.1
20200403211445 32 275 4.0 6.0 0.04 0.20 0.20 76 1019.0
20200403210944 32 300 4.0 7.0 0.03 0.18 0.18 76 1018.8
20200403210444 32 283 4.0 8.0 0.03 0.18 0.18 76 1019.3
20200403205943 32 300 4.0 8.0 0.03 0.18 0.18 76 1018.9
20200403205444 32 298 4.0 7.0 0.03 0.18 0.18 76 1018.7
20200403204944 32 309 4.0 7.0 0.03 0.18 0.18 77 1018.7
20200403204443 32 300 3.0 7.0 0.03 0.18 0.18 77 1018.6
20200403203944 32 304 3.0 7.0 0.03 0.18 0.18 77 1018.5
20200403203443 32 297 4.0 8.0 0.03 0.18 0.18 76 1018.4
20200403202944 32 321 4.0 10.0 0.03 0.18 0.18 76 1018.6
20200403202442 32 309 5.0 10.0 0.02 0.17 0.17 76 1018.6
20200403201942 32 299 5.0 10.0 0.01 0.16 0.16 76 1018.5
20200403201442 32 301 6.0 9.0 0.01 0.16 0.16 76 1018.6
20200403200942 32 315 7.0 10.0 0.00 0.15 0.15 76 1018.7
20200403200442 32 303 6.0 10.0 0.00 0.15 0.15 76 1018.5
20200403195942 32 283 6.0 10.0 0.01 0.15 0.15 76 1018.6
20200403195441 32 284 5.0 10.0 0.01 0.15 0.15 76 1018.7
20200403194942 33 282 6.0 10.0 0.01 0.15 0.15 76 1018.5
20200403194441 33 310 6.0 10.0 0.01 0.15 0.15 76 1018.5
20200403193942 33 278 6.0 9.0 0.02 0.15 0.15 76 1018.4
20200403193442 33 281 6.0 9.0 0.03 0.15 0.15 76 1018.3
20200403192942 33 273 5.0 9.0 0.03 0.15 0.15 76 1018.1
20200403192442 33 298 4.0 9.0 0.04 0.15 0.15 77 1018.0
20200403191941 33 298 4.0 7.0 0.04 0.15 0.15 77 1017.7
20200403191442 33 293 4.0 7.0 0.05 0.15 0.15 77 1017.9
20200403190942 33 296 4.0 8.0 0.06 0.15 0.15 77 1017.9
20200403190442 33 300 4.0 8.0 0.06 0.15 0.15 77 1018.0
20200403185942 33 294 3.0 8.0 0.05 0.14 0.14 77 1018.1
20200403185441 33 290 4.0 8.0 0.05 0.14 0.14 77 1017.8
20200403184942 33 299 5.0 8.0 0.05 0.14 0.14 77 1018.0
20200403184440 33 294 5.0 8.0 0.05 0.14 0.14 77 1018.0
20200403183939 33 309 5.0 10.0 0.04 0.13 0.13 77 1017.8
20200403183438 33 300 5.0 10.0 0.04 0.12 0.12 76 1017.8
20200403182937 33 294 5.0 9.0 0.04 0.12 0.12 76 1018.0
20200403182438 33 286 5.0 9.0 0.03 0.11 0.12 76 1018.2
20200403181938 33 284 5.0 8.0 0.03 0.11 0.11 76 1018.1
20200403181437 33 286 5.0 10.0 0.02 0.10 0.10 76 1018.1
20200403180938 33 300 6.0 10.0 0.01 0.09 0.10 76 1018.1
20200403180438 33 309 5.0 9.0 0.02 0.09 0.09 77 1018.3
20200403175938 34 284 4.0 10.0 0.02 0.09 0.09 77 1018.2
20200403175436 33 290 4.0 10.0 0.02 0.09 0.09 78 1018.1
20200403174936 33 296 4.0 9.0 0.02 0.09 0.09 78 1018.0
20200403174435 33 294 4.0 8.0 0.02 0.09 0.09 77 1018.1
20200403173936 33 294 4.0 8.0 0.02 0.09 0.09 77 1018.1
20200403173436 33 296 4.0 8.0 0.01 0.08 0.08 76 1018.1
20200403172935 33 311 4.0 9.0 0.01 0.08 0.08 76 1018.2
20200403172436 33 299 5.0 9.0 0.01 0.08 0.08 76 1018.1
20200403171936 33 290 5.0 9.0 0.01 0.08 0.08 76 1018.2
20200403171435 34 311 5.0 10.0 0.02 0.08 0.08 76 1018.3
20200403170934 34 275 5.0 10.0 0.02 0.08 0.08 76 1018.2
20200403170434 34 285 6.0 9.0 0.01 0.07 0.07 76 1018.2
20200403165933 35 284 5.0 9.0 0.01 0.07 0.07 76 1018.2
20200403165434 35 307 5.0 9.0 0.01 0.07 0.07 75 1018.2
20200403164933 35 310 5.0 10.0 0.01 0.07 0.07 76 1018.1
20200403164433 35 286 6.0 10.0 0.01 0.07 0.07 76 1018.0
20200403163934 35 290 5.0 9.0 0.01 0.07 0.07 75 1018.0
20200403163433 35 316 5.0 9.0 0.01 0.07 0.07 76 1018.0
20200403162934 35 300 5.0 9.0 0.01 0.07 0.07 76 1017.8
20200403162433 35 283 4.0 9.0 0.01 0.07 0.07 76 1017.8
20200403161933 35 300 4.0 7.0 0.01 0.07 0.07 76 1017.7
20200403161432 35 296 5.0 9.0 0.00 0.06 0.06 75 1017.7
20200403160931 35 292 5.0 11.0 0.00 0.06 0.06 75 1017.6
20200403160431 35 302 5.0 11.0 0.00 0.06 0.06 75 1017.5
20200403155932 36 302 6.0 9.0 0.00 0.06 0.06 75 1017.5
20200403155431 36 292 6.0 9.0 0.00 0.06 0.06 76 1017.7
20200403154931 37 275 6.0 8.0 0.00 0.06 0.06 76 1017.4
20200403154431 36 266 5.0 8.0 0.00 0.06 0.06 76 1017.3
20200403153931 36 285 4.0 8.0 0.00 0.06 0.06 75 1017.2
20200403153432 36 301 4.0 8.0 0.00 0.06 0.06 75 1017.0
20200403152931 37 282 4.0 8.0 0.00 0.06 0.06 75 1017.1
20200403152429 37 315 5.0 8.0 0.00 0.06 0.06 75 1017.2
20200403151929 37 300 6.0 10.0 0.00 0.06 0.06 75 1017.3
20200403151429 38 299 6.0 10.0 0.00 0.06 0.06 75 1017.2
20200403150930 38 269 5.0 8.0 0.00 0.06 0.06 75 1017.1
20200403150429 38 264 5.0 8.0 0.01 0.06 0.06 75 1017.0
20200403145929 38 287 4.0 8.0 0.02 0.06 0.06 76 1016.8
20200403145429 38 287 4.0 8.0 0.02 0.06 0.06 76 1016.8
20200403144929 38 294 4.0 7.0 0.02 0.06 0.06 76 1016.8
20200403144430 38 291 3.0 7.0 0.02 0.06 0.06 76 1016.6
20200403143929 38 285 3.0 6.0 0.02 0.06 0.06 76 1016.7
20200403143427 38 285 4.0 7.0 0.02 0.06 0.06 76 1016.7
20200403142928 38 271 5.0 8.0 0.02 0.06 0.06 75 1016.8
20200403142427 38 288 6.0 9.0 0.02 0.06 0.06 75 1016.7
20200403141927 38 284 6.0 9.0 0.02 0.06 0.06 74 1016.6
20200403141428 38 290 6.0 9.0 0.02 0.06 0.06 74 1016.6
20200403140927 38 283 6.0 11.0 0.02 0.06 0.06 74 1016.5
20200403140427 39 288 6.0 11.0 0.01 0.05 0.05 73 1016.5
20200403135927 39 282 6.0 9.0 0.00 0.04 0.04 73 1016.6
20200403135427 40 292 6.0 10.0 0.00 0.04 0.04 73 1016.5
20200403134927 40 293 6.0 10.0 0.00 0.04 0.04 74 1016.3
20200403134427 40 293 6.0 9.0 0.00 0.04 0.04 74 1016.3
20200403133927 41 273 5.0 9.0 0.00 0.04 0.04 74 1016.2
20200403133427 41 295 5.0 8.0 0.00 0.04 0.04 75 1016.2
20200403132927 41 285 6.0 8.0 0.00 0.04 0.04 74 1016.2
20200403132427 42 269 6.0 8.0 0.00 0.04 0.04 74 1016.0
20200403131927 42 281 6.0 9.0 0.00 0.04 0.04 73 1016.0
20200403131427 42 292 6.0 9.0 0.00 0.04 0.04 72 1015.9
20200403130925 43 293 4.0 9.0 0.00 0.04 0.04 72 1015.8
20200403130425 44 296 4.0 8.0 0.00 0.04 0.04 73 1015.7
20200403125925 44 296 4.0 8.0 0.00 0.04 0.04 73 1015.7
20200403125425 45 310 4.0 7.0 0.00 0.04 0.04 73 1015.6
20200403124925 45 282 3.0 6.0 0.00 0.04 0.04 73 1015.5
20200403124425 46 293 3.0 6.0 0.00 0.04 0.04 73 1015.3
20200403123925 46 268 4.0 9.0 0.00 0.04 0.04 72 1015.4
20200403123425 47 224 5.0 10.0 0.00 0.04 0.04 71 1015.3
20200403122925 49 262 3.0 10.0 0.00 0.04 0.04 71 1015.2
20200403122425 50 242 2.0 4.0 0.00 0.04 0.04 74 1015.1
20200403121923 49 92 2.0 3.0 0.00 0.04 0.04 74 1015.0
20200403121423 49 92 2.0 3.0 0.00 0.04 0.04 74 1014.8
20200403120921 49 92 3.0 4.0 0.00 0.04 0.04 74 1014.8
20200403120421 49 92 3.0 4.0 0.00 0.04 0.04 75 1014.8
20200403115921 49 94 3.0 5.0 0.00 0.04 0.04 75 1014.8
20200403115421 49 86 3.0 5.0 0.00 0.04 0.04 75 1015.0
20200403114921 49 94 2.0 4.0 0.00 0.04 0.04 75 1015.0
20200403114421 49 94 2.0 3.0 0.00 0.04 0.04 74 1015.1
20200403113921 49 94 2.0 3.0 0.00 0.04 0.04 73 1015.0
20200403113421 50 94 1.0 2.0 0.00 0.04 0.04 72 1015.1
20200403112921 50 94 1.0 2.0 0.00 0.04 0.04 72 1015.2
20200403112421 50 94 2.0 3.0 0.00 0.04 0.04 73 1015.2
20200403111921 50 94 2.0 3.0 0.00 0.04 0.04 73 1015.1
20200403111421 50 94 2.0 3.0 0.00 0.04 0.04 73 1015.1
20200403110921 50 94 1.0 3.0 0.00 0.04 0.04 73 1015.1
20200403110420 50 94 0.0 2.0 0.00 0.04 0.04 73 1015.3
20200403105921 50 94 0.0 1.0 0.00 0.04 0.04 72 1015.3
20200403105421 50 94 2.0 5.0 0.00 0.04 0.04 72 1015.2
20200403105151 50 94 3.0 7.0 0.00 0.04 0.04 72 1015.1
20200403104421 50 66 4.0 7.0 0.00 0.04 0.04 72 1014.8
20200403103921 50 83 4.0 8.0 0.00 0.04 0.04 72 1015.0
20200403103421 50 93 4.0 8.0 0.00 0.04 0.04 72 1015.1
20200403102921 50 88 3.0 6.0 0.00 0.04 0.04 73 1015.0
20200403102420 50 89 3.0 6.0 0.00 0.04 0.04 73 1015.1
20200403101921 50 98 3.0 4.0 0.00 0.04 0.04 73 1015.2
20200403101420 50 98 3.0 4.0 0.00 0.04 0.04 73 1015.2
20200403100921 50 107 2.0 4.0 0.01 0.04 0.04 73 1015.2
20200403100434 50 108 2.0 4.0 0.01 0.04 0.04 73 1015.1
20200403095921 50 108 1.0 4.0 0.01 0.04 0.04 73 1015.1
20200403095421 50 108 1.0 3.0 0.02 0.04 0.04 73 1015.1
20200403094920 50 108 2.0 3.0 0.03 0.04 0.04 73 1015.0
20200403094421 50 109 2.0 4.0 0.03 0.04 0.04 74 1015.1
20200403093921 50 109 2.0 4.0 0.03 0.04 0.04 73 1015.2
20200403093420 50 158 1.0 5.0 0.03 0.04 0.04 73 1015.2
20200403092921 50 158 1.0 5.0 0.03 0.04 0.04 74 1015.2
20200403092420 50 113 2.0 4.0 0.04 0.04 0.04 75 1015.2
20200403091919 49 113 2.0 4.0 0.04 0.04 0.04 75 1015.2
20200403091419 49 107 2.0 4.0 0.04 0.04 0.04 74 1015.1
20200403090918 50 107 2.0 4.0 0.03 0.03 0.04 73 1015.0
20200403090419 50 157 2.0 5.0 0.03 0.03 0.03 71 1015.3
20200403085918 51 157 3.0 6.0 0.03 0.03 0.03 69 1015.3
20200403085425 51 153 3.0 6.0 0.02 0.02 0.02 69 1015.2
20200403084918 51 178 2.0 6.0 0.01 0.01 0.01 69 1015.2
20200403084419 51 178 2.0 4.0 0.01 0.01 0.01 69 1015.3
20200403083919 51 140 1.0 4.0 0.01 0.01 0.01 69 1015.2
20200403083418 51 116 1.0 2.0 0.01 0.01 0.01 69 1015.2
20200403082917 51 116 1.0 3.0 0.01 0.01 0.01 67 1015.1
20200403082416 51 116 2.0 3.0 0.00 0.00 0.00 68 1015.2
20200403081916 51 116 2.0 3.0 0.00 0.00 0.00 67 1015.2
20200403081417 52 116 2.0 3.0 0.00 0.00 0.00 65 1015.1
20200403080916 52 116 1.0 3.0 0.00 0.00 0.00 64 1015.1
20200403080416 53 117 2.0 3.0 0.00 0.00 0.00 62 1015.2
20200403075917 53 116 2.0 3.0 0.00 0.00 0.00 60 1015.2
20200403075416 53 116 2.0 3.0 0.00 0.00 0.00 60 1015.2
20200403074916 53 116 2.0 3.0 0.00 0.00 0.00 59 1015.2
20200403074416 53 116 2.0 3.0 0.00 0.00 0.00 60 1015.3
20200403073914 53 116 2.0 3.0 0.00 0.00 0.00 59 1015.2
20200403073415 54 117 2.0 3.0 0.00 0.00 0.00 57 1015.2
20200403072914 55 117 2.0 3.0 0.00 0.00 0.00 55 1015.2
20200403072415 55 117 2.0 4.0 0.00 0.00 0.00 55 1015.3
20200403071914 55 116 3.0 5.0 0.00 0.00 0.00 55 1015.2
20200403071414 55 121 2.0 5.0 0.00 0.00 0.00 55 1015.2
20200403070914 55 126 2.0 5.0 0.00 0.00 0.00 55 1015.1
20200403070414 55 140 2.0 5.0 0.00 0.00 0.00 55 1015.2
20200403065915 55 132 2.0 4.0 0.00 0.00 0.00 55 1015.1
20200403065414 55 112 3.0 7.0 0.00 0.00 0.00 55 1015.1
20200403064913 55 103 3.0 7.0 0.00 0.00 0.00 55 1015.1
20200403064412 55 94 4.0 7.0 0.00 0.00 0.00 55 1015.1
20200403063912 55 117 4.0 6.0 0.00 0.00 0.00 55 1015.2
20200403063413 55 116 4.0 7.0 0.00 0.00 0.00 55 1015.1
20200403062912 55 110 4.0 7.0 0.00 0.00 0.00 55 1015.1
20200403062412 55 111 4.0 7.0 0.00 0.00 0.00 55 1015.3
20200403061912 55 114 4.0 7.0 0.00 0.00 0.00 55 1015.3
20200403061412 55 99 4.0 7.0 0.00 0.00 0.00 55 1015.3
20200403060911 55 101 4.0 7.0 0.00 0.00 0.00 54 1015.2
20200403060410 55 111 4.0 6.0 0.00 0.00 0.00 53 1015.2
20200403055911 55 100 3.0 6.0 0.00 0.00 0.00 53 1015.3
20200403055410 55 95 3.0 7.0 0.00 0.00 0.00 53 1015.3
20200403055140 55 98 3.0 7.0 0.00 0.00 0.00 53 1015.2
20200403054410 55 106 3.0 6.0 0.00 0.00 0.00 53 1015.3
20200403053910 55 95 3.0 6.0 0.00 0.00 0.00 53 1015.4
20200403053410 55 92 3.0 6.0 0.00 0.00 0.00 53 1015.3
20200403052910 55 101 4.0 7.0 0.00 0.00 0.00 53 1015.2
20200403052410 55 101 4.0 7.0 0.00 0.00 0.00 52 1015.3
20200403051908 55 96 4.0 8.0 0.00 0.00 0.00 52 1015.3
20200403051408 55 104 4.0 8.0 0.00 0.00 0.00 52 1015.3
20200403050908 56 105 4.0 9.0 0.00 0.00 0.00 52 1015.3
20200403050408 56 94 4.0 9.0 0.00 0.00 0.00 52 1015.3
20200403045909 56 98 4.0 7.0 0.00 0.00 0.00 51 1015.3
20200403045409 56 103 4.0 7.0 0.00 0.00 0.00 51 1015.3
20200403044908 56 107 4.0 8.0 0.00 0.00 0.00 51 1015.4
20200403044409 56 90 4.0 8.0 0.00 0.00 0.00 51 1015.3
20200403043908 56 103 4.0 8.0 0.00 0.00 0.00 51 1015.3
20200403043409 56 109 4.0 9.0 0.00 0.00 0.00 51 1015.3
20200403042908 56 97 5.0 9.0 0.00 0.00 0.00 51 1015.3
20200403042407 56 99 4.0 9.0 0.00 0.00 0.00 51 1015.4
20200403041907 56 104 4.0 7.0 0.00 0.00 0.00 50 1015.3
20200403041406 56 101 4.0 8.0 0.00 0.00 0.00 50 1015.4
20200403040907 56 109 5.0 10.0 0.00 0.00 0.00 50 1015.4
20200403040406 56 105 6.0 10.0 0.00 0.00 0.00 50 1015.3
20200403035907 56 92 5.0 9.0 0.00 0.00 0.00 50 1015.2
20200403035407 56 86 4.0 7.0 0.00 0.00 0.00 50 1015.3
20200403034906 56 103 4.0 9.0 0.00 0.00 0.00 50 1015.2
20200403034407 56 105 5.0 9.0 0.00 0.00 0.00 50 1015.3
20200403033906 56 97 5.0 8.0 0.00 0.00 0.00 50 1015.2
20200403033405 56 98 5.0 9.0 0.00 0.00 0.00 50 1015.2
20200403032905 56 91 5.0 9.0 0.00 0.00 0.00 50 1015.2
20200403032404 56 89 4.0 8.0 0.00 0.00 0.00 50 1015.2
20200403031905 56 99 4.0 8.0 0.00 0.00 0.00 50 1015.2
20200403031404 56 98 4.0 8.0 0.00 0.00 0.00 51 1015.2
20200403030904 56 95 4.0 8.0 0.00 0.00 0.00 50 1015.2
20200403030404 56 88 4.0 8.0 0.00 0.00 0.00 50 1015.2
20200403025904 57 98 5.0 9.0 0.00 0.00 0.00 50 1015.2
20200403025405 57 111 5.0 9.0 0.00 0.00 0.00 50 1015.1
20200403024904 57 92 4.0 7.0 0.00 0.00 0.00 50 1015.1
20200403024403 57 96 5.0 8.0 0.00 0.00 0.00 50 1015.1
20200403023902 57 103 5.0 8.0 0.00 0.00 0.00 49 1015.1
20200403023402 57 88 5.0 8.0 0.00 0.00 0.00 49 1015.2
20200403022903 57 116 5.0 8.0 0.00 0.00 0.00 49 1015.2
20200403022402 57 99 5.0 8.0 0.00 0.00 0.00 49 1015.1
20200403021902 57 101 5.0 8.0 0.00 0.00 0.00 49 1015.2
20200403021403 57 95 5.0 9.0 0.00 0.00 0.00 48 1015.1
20200403020902 57 94 5.0 9.0 0.00 0.00 0.00 48 1015.0
20200403020403 58 97 5.0 7.0 0.00 0.00 0.00 48 1014.8
20200403015902 58 111 4.0 7.0 0.00 0.00 0.00 48 1014.8
20200403015400 57 123 4.0 8.0 0.00 0.00 0.00 48 1014.8
20200403014901 57 124 4.0 8.0 0.00 0.00 0.00 48 1014.7
20200403014400 57 103 3.0 7.0 0.00 0.00 0.00 48 1014.6
20200403013900 57 107 3.0 7.0 0.00 0.00 0.00 48 1014.5
20200403013401 57 78 3.0 6.0 0.00 0.00 0.00 48 1014.5
20200403012900 57 102 3.0 4.0 0.00 0.00 0.00 48 1014.5
20200403012358 58 103 3.0 4.0 0.00 0.00 0.00 47 1014.5
20200403011858 58 106 2.0 3.0 0.00 0.00 0.00 47 1014.6
20200403011359 58 106 2.0 3.0 0.00 0.00 0.00 47 1014.5
20200403010858 58 106 2.0 3.0 0.00 0.00 0.00 47 1014.5
20200403010358 58 106 3.0 6.0 0.00 0.00 0.00 46 1014.5
20200403005858 59 106 3.0 6.0 0.00 0.00 0.00 46 1014.5
20200403005358 59 101 4.0 7.0 0.00 0.00 0.00 45 1014.5
20200403004859 59 103 4.0 7.0 0.00 0.00 0.00 45 1014.5
20200403004358 59 103 4.0 7.0 0.00 0.00 0.00 45 1014.3
20200403003859 60 102 3.0 6.0 0.00 0.00 0.00 45 1014.4
20200403003358 60 101 3.0 6.0 0.00 0.00 0.00 44 1014.4
20200403002858 60 118 4.0 6.0 0.00 0.00 0.00 43 1014.3
20200403002358 61 121 4.0 8.0 0.00 0.00 0.00 42 1014.3
20200403001858 61 106 4.0 8.0 0.00 0.00 0.00 42 1014.2
20200403001358 61 150 4.0 8.0 0.00 0.00 0.00 41 1014.1
20200403000857 62 152 5.0 9.0 0.00 0.00 0.00 40 1014.1
20200403000356 62 143 5.0 14.0 0.00 0.00 0.00 40 1014.1
20200402235856 62 140 5.0 14.0 0.00 0.00 0.00 40 1014.0
20200402235356 62 137 6.0 15.0 0.00 0.00 0.00 40 1014.0
20200402234856 62 121 6.0 15.0 0.00 0.00 0.00 40 1014.0
20200402234356 62 145 6.0 11.0 0.00 0.00 0.00 39 1014.1
20200402233856 62 149 6.0 10.0 0.00 0.00 0.00 39 1013.9
20200402233356 62 131 6.0 9.0 0.00 0.00 0.00 39 1014.0
20200402232855 62 142 6.0 11.0 0.00 0.00 0.00 39 1014.0
20200402232356 62 190 7.0 14.0 0.00 0.00 0.00 39 1014.0
20200402231856 62 110 7.0 14.0 0.00 0.00 0.00 39 1013.9
20200402231356 62 109 8.0 13.0 0.00 0.00 0.00 39 1014.0
20200402230856 62 108 8.0 13.0 0.00 0.00 0.00 38 1014.1
20200402230356 62 117 8.0 16.0 0.00 0.00 0.00 38 1014.1
20200402225856 62 140 8.0 16.0 0.00 0.00 0.00 39 1014.1